User: anonymous
Location: Unspecified
(0.0000°N, 0.0000°E)
Time: 11:45:55
(UTC+00:00)
Language:

CLOUDSAT - Orbit

View from above orbital plane
View from above orbital plane
View from above satellite
View from above satellite

Ground track
Ground track

The orbit data is extracted from the following two-line orbital elements,

1 29107U 06016A   14203.55696744  .00000133  00000-0  39563-4 0  7162
2 29107 098.1986 146.8273 0001630 082.2883 277.8469 14.57134975437984
Epoch (UTC): 22 July 2014 13:22:01
Eccentricity: 0.0001630
inclination: 98.1986°
perigee height: 701 km
apogee height: 703 km
right ascension of ascending node: 146.8273°
argument of perigee: 82.2883°
revolutions per day: 14.57134975
mean anomaly at epoch: 277.8469°
orbit number at epoch: 43798

The dashed part of the orbit path shows where the satellite is in the earth's shadow,  

DLR